Theta_e
311 316 315 315 315 314 317 318 317 318 321 319 320 323 324 325 329 330 336 337 339 337 338 338 338 337 336 337 335 334 334 333 329 325 320 318 315 315 318 316 315 319 320 321 321 321 321 322 322
313 315 315 310 314 315 314 313 319 320 321 321 321 320 322 329 327 328 336 339 339 337 339 338 337 337 337 336 333 333 333 328 323 318 316 314 315 311 309 313 314 315 319 319 320 321 321 321 321
314 314 311 311 310 316 314 316 319 320 319 322 322 319 323 325 327 332 335 339 338 339 338 337 337 336 336 334 332 332 329 323 317 312 310 310 309 309 312 316 314 316 317 319 319 319 320 320 320
315 312 308 311 313 312 315 315 318 321 320 321 321 323 321 322 324 333 337 339 337 339 338 336 336 335 333 333 333 332 324 317 311 308 307 307 307 310 313 314 315 315 316 318 318 318 318 317 317
314 311 312 310 309 309 314 313 314 321 321 321 321 322 323 328 333 335 338 338 338 337 336 335 335 333 332 333 331 325 318 312 308 306 306 305 306 307 314 315 315 316 316 316 316 316 315 315 315
312 309 312 313 312 311 312 312 314 314 318 320 319 322 322 328 335 336 339 339 339 337 336 334 333 332 330 329 325 319 312 309 307 306 306 308 310 311 312 312 313 315 314 314 314 314 314 315 315
314 311 312 310 310 311 313 311 313 316 317 318 317 321 320 324 334 335 337 337 337 336 335 333 331 329 328 325 321 314 309 307 306 307 309 309 311 311 312 312 311 314 314 314 315 315 315 315 314
313 313 313 310 310 315 314 315 314 315 317 314 316 319 321 323 332 334 336 336 335 334 333 331 330 329 325 321 316 311 307 306 309 309 310 309 310 312 312 311 310 313 314 314 314 315 313 314 314
312 314 313 312 311 313 314 316 314 314 315 315 315 318 319 327 331 334 335 333 333 332 332 331 330 327 323 317 313 307 307 309 310 311 311 309 312 312 312 311 310 311 311 311 313 314 314 314 315
314 314 313 312 313 313 314 315 314 315 315 315 316 320 325 328 331 332 332 332 332 332 331 328 326 322 318 316 311 310 309 310 310 311 311 311 312 312 311 311 310 311 310 312 313 314 314 314 314
313 314 312 313 314 312 313 313 310 314 315 314 315 318 321 325 328 330 330 332 331 331 329 327 325 321 318 314 311 310 310 310 311 311 311 312 311 311 311 311 311 310 311 312 313 314 314 314 314
314 313 312 313 312 313 313 311 311 312 313 311 311 314 316 319 321 324 326 330 330 329 327 326 322 320 316 312 311 311 310 311 311 311 312 311 310 311 311 311 311 310 311 313 313 314 314 314 314
314 313 312 312 312 313 312 312 312 311 309 309 312 312 312 310 311 312 318 322 327 328 326 323 321 318 316 312 311 311 310 311 311 312 312 311 311 311 310 310 310 311 312 312 313 314 315 315 315
314 314 313 312 312 313 314 313 313 312 310 310 310 309 309 309 309 309 311 312 318 326 326 323 320 317 314 312 311 310 311 311 312 312 311 311 310 309 310 310 311 312 312 313 313 315 315 316 315
314 314 313 313 312 314 314 317 314 311 311 312 311 309 309 309 309 309 311 311 314 323 325 321 317 315 313 311 311 311 311 311 311 312 312 311 308 309 310 311 312 312 313 313 314 315 315 316 316
314 314 314 314 313 314 314 319 312 310 311 311 310 309 309 309 309 309 312 312 317 322 322 317 315 313 312 311 310 311 310 311 312 312 310 308 309 310 310 312 312 313 313 314 315 315 316 316 315
313 315 314 316 315 315 314 316 312 310 310 309 308 308 309 309 309 309 310 312 317 319 316 314 312 311 310 310 311 311 312 312 312 309 308 308 310 311 312 312 312 312 313 314 315 315 316 316 315
317 315 314 318 317 317 314 313 312 310 309 308 307 308 308 309 309 308 309 310 312 312 311 310 310 310 310 311 311 313 313 312 310 308 308 308 310 311 312 312 312 312 313 314 315 316 316 316 314
315 314 317 318 316 317 314 312 312 308 307 307 307 307 308 308 309 308 309 309 310 310 310 311 311 311 311 312 312 312 312 311 310 309 308 309 309 311 312 312 312 313 313 314 315 315 316 315 314
312 315 318 316 315 315 312 312 309 308 306 305 305 305 306 308 308 308 308 308 309 309 310 310 310 311 311 312 312 312 312 311 310 309 309 309 310 311 312 312 312 313 313 314 314 315 315 314 313
313 317 316 318 314 313 312 313 311 307 305 304 303 303 304 308 309 308 306 305 307 308 308 309 309 310 311 312 312 312 311 310 310 310 309 309 310 312 312 312 312 312 313 313 314 314 315 314 313
314 312 315 314 310 310 314 316 310 308 306 304 303 302 303 302 302 303 302 301 301 304 306 307 308 309 309 310 309 309 309 310 310 311 311 310 310 311 312 311 312 312 312 312 313 313 315 314 313
314 313 313 313 313 313 314 315 311 308 307 304 302 301 300 299 299 299 298 298 297 299 300 302 305 306 308 308 307 308 308 309 309 309 310 311 311 312 311 311 312 312 312 312 312 312 313 315 315
312 316 316 315 314 316 311 313 313 309 308 303 300 298 297 297 296 296 295 295 294 296 297 298 299 301 304 305 306 307 308 308 308 308 309 310 311 311 311 312 313 312 312 312 312 312 313 314 316
315 317 321 321 319 320 312 317 310 305 304 302 299 297 295 294 294 294 293 292 292 292 293 294 295 296 299 303 304 304 305 306 306 307 308 308 308 309 309 310 311 312 314 313 312 312 313 314 314
315 315 318 314 319 315 312 320 310 303 300 299 297 295 294 292 292 291 291 291 290 290 291 291 292 293 295 297 299 301 301 300 301 302 303 304 304 306 308 310 310 311 312 313 312 312 313 313 314
313 316 313 313 308 316 314 306 304 301 299 298 296 294 293 291 290 290 290 290 290 289 289 290 290 290 291 291 292 295 297 297 296 297 299 299 300 302 304 306 307 308 310 311 312 313 312 312 313
312 312 315 312 313 315 313 312 311 303 300 297 295 293 292 291 290 290 289 289 289 288 288 289 289 289 289 290 290 290 291 292 292 294 294 295 296 298 300 301 302 304 305 306 308 309 310 312 313
311 313 312 313 312 316 313 310 304 303 300 297 295 293 292 290 289 289 288 288 287 286 286 285 285 286 286 286 286 287 286 287 287 289 290 291 292 293 294 295 296 298 300 301 303 304 305 306 308
309 312 312 316 314 307 309 307 300 301 298 296 294 293 291 290 288 287 286 285 285 284 283 282 282 282 282 282 283 283 283 283 283 283 283 284 285 287 289 291 292 293 292 293 294 295 297 298 300
Wind_Speed
11 7 7 4 3 4 3 5 2 1 2 3 2 8 8 3 3 3 3 10 17 24 23 17 15 12 12 12 9 7 4 3 3 3 3 4 5 6 7 8 8 9 9 10 10 10 11 11 12
9 6 4 2 4 3 4 5 4 2 2 1 5 4 6 3 2 3 6 15 20 22 23 18 15 13 12 11 8 4 4 3 2 3 4 6 6 7 8 8 9 9 10 10 10 11 11 12 13
5 4 3 3 3 4 3 3 2 2 2 3 3 6 3 2 3 9 9 20 20 23 21 17 14 11 11 9 7 4 3 3 2 3 5 5 7 8 9 8 10 10 10 10 11 11 12 12 13
5 4 4 3 3 5 3 4 4 1 3 6 3 6 3 3 2 6 21 22 23 23 18 14 14 13 9 7 6 4 4 2 2 3 5 6 8 9 9 9 9 9 9 10 11 12 12 13 13
1 3 2 1 4 4 1 3 4 2 1 1 2 3 3 3 10 16 23 23 23 22 19 14 13 11 9 7 6 4 3 1 2 4 6 8 9 9 9 9 10 9 10 13 12 11 12 13 14
3 1 2 3 3 4 2 3 1 2 2 2 4 4 2 5 11 16 24 23 22 24 19 15 13 9 7 7 5 3 1 2 4 6 7 8 8 8 9 11 11 11 14 12 12 12 12 12 13
4 2 3 3 3 3 3 4 2 2 2 3 1 4 1 4 10 12 21 21 19 19 18 15 11 9 7 6 4 2 1 3 5 6 8 9 9 10 11 13 12 12 12 12 12 12 12 14 15
4 3 1 4 2 1 2 1 1 3 0 2 1 4 4 5 14 14 19 18 14 13 14 15 12 9 7 5 4 2 1 3 5 7 9 10 10 10 11 11 13 10 11 12 12 13 13 13 15
5 2 1 4 1 1 1 2 4 1 2 3 4 3 1 19 16 18 19 15 16 14 13 12 11 10 8 4 2 2 1 3 5 7 9 11 9 8 11 12 13 8 10 11 11 12 13 15 16
4 0 4 2 2 2 3 3 2 2 3 2 4 5 11 15 16 19 16 17 17 18 16 12 10 9 8 5 3 3 2 4 5 7 11 11 8 8 10 11 10 9 9 10 12 13 12 12 15
4 3 3 2 2 4 4 5 5 3 2 1 1 6 5 6 10 13 14 18 20 17 16 14 11 9 7 5 2 1 2 4 6 9 10 11 10 7 9 10 10 10 9 10 12 13 14 12 14
1 6 2 5 2 3 2 4 5 2 3 2 6 7 7 7 9 11 15 14 17 19 16 16 12 9 7 4 2 1 2 5 7 8 10 12 10 7 9 9 9 9 10 11 11 13 13 14 14
2 6 6 5 2 2 2 2 2 6 10 6 8 11 9 10 12 8 8 12 16 20 18 18 15 11 8 6 3 2 3 5 7 8 10 11 10 9 9 8 9 10 9 9 11 11 13 16 16
5 13 10 5 5 3 3 2 4 2 11 17 18 14 12 13 14 16 20 10 6 21 21 17 15 11 7 5 3 1 3 5 7 8 9 10 11 8 7 8 9 10 9 8 9 11 15 16 19
2 3 4 5 4 4 2 3 3 5 16 16 14 13 13 14 20 19 19 11 4 15 20 17 14 11 7 5 4 2 4 5 6 7 8 10 9 7 8 9 10 8 8 7 6 10 12 18 18
6 2 0 4 6 2 3 3 10 9 18 13 14 13 13 14 20 23 22 12 6 15 19 18 13 10 7 5 4 4 5 6 7 8 9 8 7 7 8 10 8 7 7 6 7 9 14 18 17
4 3 5 3 1 3 2 5 9 11 13 13 12 12 12 14 23 27 26 20 18 19 19 16 13 9 7 6 5 5 6 6 8 9 8 8 7 8 10 8 7 7 6 8 9 11 14 17 21
6 4 4 4 4 2 8 7 8 10 13 11 11 11 12 14 16 21 28 28 28 25 21 17 14 10 6 5 6 5 6 7 9 9 9 8 7 9 9 8 6 6 7 8 11 13 14 13 21
1 5 4 3 3 3 5 6 7 9 12 12 12 11 11 12 15 22 29 29 28 26 22 18 14 11 7 5 4 5 6 8 11 11 8 8 8 8 8 7 6 6 7 6 12 16 16 17 22
6 5 3 3 1 5 5 8 9 11 8 8 9 10 10 10 11 19 24 28 27 24 21 19 17 14 12 9 7 5 4 7 9 9 9 8 8 9 6 6 7 7 6 6 11 16 17 11 16
5 3 4 6 3 6 8 2 3 6 8 11 10 8 11 9 9 13 21 23 26 25 22 21 19 17 15 12 11 8 7 9 11 11 10 8 8 10 9 7 7 7 7 8 10 13 14 15 16
5 3 3 5 3 4 4 4 3 5 8 9 8 8 9 10 11 16 19 21 23 23 21 21 20 20 18 15 15 16 15 12 13 12 11 9 8 10 11 9 7 7 8 8 10 11 12 14 15
2 5 3 1 2 2 2 2 3 7 3 3 5 6 8 9 10 12 16 17 21 21 22 20 20 22 19 19 17 14 14 12 12 12 12 12 10 10 10 10 10 9 10 10 10 11 12 11 12
7 5 7 4 3 1 6 5 4 5 4 4 3 5 7 8 9 14 15 17 21 20 21 20 20 21 21 17 16 18 17 16 15 16 15 14 13 13 14 13 11 11 11 12 12 12 11 12 10
8 8 1 1 0 5 1 3 1 3 5 7 7 5 5 6 8 10 15 17 19 22 22 20 20 22 21 19 16 17 17 18 19 19 19 20 18 18 19 17 16 15 13 12 12 13 13 11 12
8 15 5 6 4 4 0 5 0 5 7 8 8 6 6 6 6 8 13 15 17 20 21 21 21 21 21 20 20 17 18 19 20 19 18 18 19 18 17 19 17 15 14 15 12 12 12 13 13
5 5 3 5 2 2 3 2 1 7 7 7 7 6 6 6 6 7 14 18 18 19 20 21 20 22 23 22 21 21 18 18 19 18 18 18 19 19 17 17 18 19 17 15 17 14 15 14 15
4 4 2 2 4 4 3 3 3 12 10 8 6 6 5 5 6 8 13 16 17 17 18 20 21 22 23 24 25 24 24 23 21 19 20 20 19 19 19 20 20 20 19 18 17 17 18 17 17
3 3 3 2 4 4 4 4 2 12 13 11 8 7 6 5 5 6 12 15 16 17 19 20 22 23 25 26 26 27 28 27 27 28 27 25 24 22 22 21 20 20 22 23 23 22 21 20 20
2 5 5 4 4 2 2 2 3 10 12 11 10 8 7 6 5 9 11 14 16 17 19 21 22 25 25 25 27 28 27 28 29 29 29 27 27 26 27 26 25 23 25 25 26 26 25 25 25
Wind_Direction
326 337 339 34 61 66 270 261 277 14 58 304 320 95 110 67 106 195 122 178 167 160 155 162 165 166 160 153 139 166 165 140 105 71 55 39 24 18 14 1 353 351 350 341 337 328 321 315 312
343 9 42 71 89 77 267 271 178 233 209 198 96 86 42 60 85 122 99 143 154 152 150 162 167 171 162 154 144 170 146 122 84 54 34 22 15 3 352 350 346 344 344 339 332 326 321 319 317
0 21 76 95 122 180 220 263 175 249 11 69 79 58 86 70 11 150 149 148 148 153 155 162 167 171 164 156 169 180 157 127 68 36 17 10 1 357 355 355 344 345 350 346 341 338 331 324 318
8 25 38 97 215 257 218 225 200 316 0 52 102 62 62 322 207 157 151 151 147 152 155 163 167 172 177 170 195 192 164 135 66 15 7 0 359 356 1 355 350 350 350 347 339 334 333 328 323
63 57 60 287 244 268 206 238 174 107 112 69 66 155 65 15 116 141 155 155 148 150 153 169 169 178 193 199 185 170 167 97 28 12 3 1 358 358 3 4 356 352 346 336 333 332 330 327 323
62 103 92 242 247 271 298 286 106 70 349 62 69 97 97 146 142 147 154 154 151 152 157 170 184 183 167 170 166 161 117 15 10 7 11 6 5 8 359 359 356 350 342 341 340 340 338 337 335
122 100 186 246 244 284 216 314 74 101 62 36 309 77 122 159 158 151 157 152 152 161 166 178 186 182 180 172 171 152 43 14 20 11 14 7 360 0 1 355 360 353 353 354 352 343 337 334 330
118 92 299 254 219 243 219 84 299 74 227 278 136 164 194 192 160 153 161 158 159 173 177 174 185 192 182 180 181 158 72 35 22 14 9 5 353 2 2 358 351 345 350 347 349 350 345 343 341
34 64 250 308 295 346 284 92 345 67 48 18 35 95 98 148 156 147 154 158 157 163 165 178 187 185 183 181 189 128 62 43 12 2 3 2 3 5 358 2 2 7 1 8 359 354 350 343 346
88 246 225 304 285 350 340 85 1 54 10 18 54 37 123 148 158 153 162 159 171 171 174 174 177 175 167 161 154 129 59 27 0 357 353 2 5 4 2 6 5 5 7 10 11 357 358 346 343
130 235 219 286 358 17 1 8 318 69 21 29 223 175 164 152 172 178 184 176 182 182 179 182 183 178 175 161 142 117 52 19 0 348 353 359 359 3 4 6 6 11 12 20 7 358 358 1 -0
178 251 286 285 333 11 340 306 350 3 221 72 294 168 160 164 198 203 208 205 202 189 184 181 182 178 173 171 153 98 7 14 353 351 355 354 2 3 6 6 11 10 14 24 8 358 13 9 358
191 270 292 334 358 297 278 310 267 303 285 282 59 53 47 34 23 354 278 249 223 199 184 181 179 183 184 173 161 131 357 0 359 358 357 1 3 6 10 18 12 11 24 20 11 5 4 3 358
188 238 267 284 271 304 327 1 25 6 27 65 69 60 52 47 20 18 30 20 234 209 188 181 178 182 174 156 138 87 13 9 3 5 359 3 358 9 29 36 21 24 27 19 17 11 20 9 1
204 198 314 269 206 216 161 4 349 57 74 63 58 54 43 33 25 15 10 352 23 193 179 172 170 165 161 146 132 57 20 16 10 4 5 357 11 44 39 44 39 33 29 23 11 14 2 1 3
194 327 201 321 151 217 180 126 11 4 80 57 49 45 37 28 18 12 19 10 99 160 161 159 156 148 138 136 108 49 31 25 16 11 358 12 46 56 47 40 42 31 18 22 6 11 358 3 -0
153 194 212 280 176 150 209 100 21 20 63 59 43 42 40 31 22 18 38 57 97 127 134 130 128 119 117 109 87 68 51 34 24 13 23 37 64 50 42 28 29 32 30 360 356 356 352 0 359
173 244 184 186 219 89 89 88 52 39 61 60 50 40 40 37 24 22 51 68 84 95 100 98 94 89 91 88 82 77 44 36 19 31 34 50 60 50 35 37 31 25 8 356 349 353 2 359 357
259 171 267 138 208 113 88 83 50 44 51 51 48 39 36 38 34 38 52 67 75 77 78 77 77 68 71 65 59 50 47 47 40 41 43 47 40 48 38 36 44 29 15 357 348 1 357 2 2
288 188 151 37 163 92 96 78 64 46 51 52 43 41 31 36 37 40 46 57 63 64 66 65 62 60 55 54 50 56 48 38 31 35 35 40 37 33 31 33 34 12 13 350 356 5 359 349 4
233 174 171 148 149 57 133 147 163 75 69 54 39 32 38 40 40 42 42 38 54 55 53 58 57 56 53 56 68 76 82 45 40 37 37 42 37 28 34 31 18 14 1 352 350 354 0 356 2
195 164 139 123 122 218 175 250 206 118 73 55 43 34 35 39 41 40 40 36 39 51 61 62 62 58 54 55 57 51 46 42 31 21 29 32 32 32 29 29 10 354 350 339 346 347 352 351 353
241 41 164 118 83 47 228 82 298 139 109 79 56 47 44 41 42 39 36 39 43 50 50 53 59 63 60 59 52 51 50 42 39 34 33 37 29 27 21 11 12 1 346 345 335 333 341 341 344
136 74 24 49 70 346 234 159 218 193 164 143 99 60 51 51 47 47 43 43 39 46 49 47 49 53 62 62 60 53 48 45 41 29 27 27 29 24 21 16 3 356 348 341 336 332 320 336 332
124 108 32 321 213 220 291 152 269 120 92 135 128 87 58 46 46 42 38 36 34 39 43 42 46 47 53 61 60 53 51 46 37 31 27 25 18 15 9 3 359 359 352 340 337 327 327 325 327
175 163 173 201 199 212 79 221 246 116 103 105 104 100 76 59 53 46 42 43 39 39 43 47 44 46 49 52 55 52 49 49 47 41 38 35 24 19 18 18 9 0 355 354 334 325 321 322 319
183 195 177 111 14 87 149 112 41 143 129 122 114 97 82 66 56 50 49 49 44 43 45 45 47 49 52 50 51 52 47 42 35 30 30 29 22 17 17 23 17 14 12 3 3 344 325 316 316
152 168 97 8 141 228 241 218 213 180 164 147 133 120 105 82 62 52 51 53 53 52 56 57 55 52 56 58 56 55 53 50 46 41 32 27 19 16 15 16 15 14 17 11 5 4 6 348 325
163 191 200 140 156 177 167 240 330 176 163 161 153 136 123 103 82 64 62 64 62 60 58 59 57 57 60 61 60 58 56 53 51 48 42 38 36 28 22 18 14 15 9 8 5 5 360 354 351
295 208 166 155 218 249 189 229 341 142 147 147 142 134 123 114 101 81 73 68 62 61 62 63 62 61 60 62 62 58 55 53 50 46 42 38 38 36 33 31 30 30 15 11 7 1 355 354 351